This is the latest recevied weather packets stored in our database for station/object N4QB-13. If no packets are shown the sender has not sent any weather packets the latest 10 day(s).
| Time | Temp. | Humidity | Pressure | Rain* | Wind** | Luminosity | Snow |
|---|---|---|---|---|---|---|---|
| 1777509752 | 25.56° C | 77% | 1010.3 hPa | 0 mm | - | 0 W/m² | - |
| 1777509447 | 25.56° C | 77% | 1010.1 hPa | 0 mm | - | 0 W/m² | - |
| 1777509145 | 25.56° C | 78% | 1010 hPa | 0 mm | - | 0 W/m² | - |
| 1777508842 | 25.56° C | 78% | 1009.9 hPa | 0 mm | - | 0 W/m² | - |
| 1777508539 | 25.56° C | 78% | 1009.7 hPa | 0 mm | - | 0 W/m² | - |
| 1777508236 | 25.56° C | 77% | 1009.7 hPa | 0 mm | - | 0 W/m² | - |
| 1777507933 | 25.56° C | 77% | 1009.6 hPa | 0 mm | - | 0 W/m² | - |
| 1777507630 | 25.56° C | 77% | 1009.5 hPa | 0 mm | - | 1 W/m² | - |
| 1777507327 | 25.56° C | 76% | 1009.6 hPa | 0 mm | - | 1 W/m² | - |
| 1777507024 | 25.56° C | 76% | 1009.5 hPa | 0 mm | - | 2 W/m² | - |
| 1777506721 | 26.11° C | 76% | 1009.5 hPa | 0 mm | - | 4 W/m² | - |
| 1777506418 | 26.11° C | 75% | 1009.4 hPa | 0 mm | - | 5 W/m² | - |
| 1777506114 | 26.11° C | 75% | 1009.2 hPa | 0 mm | - | 10 W/m² | - |
| 1777505809 | 26.67° C | 74% | 1009.1 hPa | 0 mm | - | 14 W/m² | - |
| 1777416375 | 29.44° C | 46% | 1015.6 hPa | 0 mm | - | 46 W/m² | - |
| 1777416074 | 29.44° C | 46% | 1015.6 hPa | 0 mm | - | 46 W/m² | - |
| 1777415770 | 29.44° C | 46% | 1015.6 hPa | 0 mm | - | 46 W/m² | - |
| 1777415466 | 29.44° C | 46% | 1015.5 hPa | 0 mm | - | 54 W/m² | - |
| 1777415161 | 29.44° C | 46% | 1015.5 hPa | 0 mm | - | 84 W/m² | - |
| 1777414850 | 30° C | 45% | 1015.6 hPa | 0 mm | - | 143 W/m² | - |
| 1777414545 | 30° C | 46% | 1015.5 hPa | 0 mm | - | 163 W/m² | - |
| 1777414244 | 29.44° C | 46% | 1015.6 hPa | 0 mm | - | 186 W/m² | - |
| 1777413940 | 29.44° C | 45% | 1015.5 hPa | 0 mm | - | 198 W/m² | - |
| 1777413636 | 30° C | 45% | 1015.4 hPa | 0 mm | - | 201 W/m² | - |
| 1777413332 | 29.44° C | 45% | 1015.5 hPa | 0 mm | - | 199 W/m² | - |
* Rain latest hour (hover to see other rain measurements)
** Current wind speed in m/s (hover to see current wind gust speed)